Retour au catalogue

FENGYUN 1C DEB

ActifPO
NORAD 30350·DEBRIS·🇨🇳 China

Lancé May 10, 1999 depuis Taiyuan Satellite Launch Center

Loading…

Prochains Passages (prochaines 24 heures)

TLE

FraisSource: Space-Track

Époque: Sep 14, 2026, 08:48 UTC

1 30350U 99025ABM 26257.36677464  .00000691  00000-0  55248-3 0  9994
2 30350  98.1239  42.9614 0217400 268.3521 118.3184 13.83310323987920

Suivez FENGYUN 1C DEB en temps réel avec AllMySat

Download on the App Store